This is the latest recevied weather packets stored in our database for station/object KC2TER. If no packets are shown the sender has not sent any weather packets the latest 1 day(s).
| Time | Temp. | Humidity | Pressure | Rain* | Wind** | Luminosity | Snow |
|---|---|---|---|---|---|---|---|
| 1778031597 | 20° C | 68% | 1011.2 hPa | 0 mm | 1.34 m/s, 107° | 0 W/m² | - |
| 1778031295 | 20° C | 68% | 1011.1 hPa | 0 mm | 0.45 m/s, 109° | 0 W/m² | - |
| 1778030990 | 20° C | 67% | 1011 hPa | 0 mm | 1.79 m/s, 111° | 0 W/m² | - |
| 1778030687 | 20° C | 66% | 1011.3 hPa | 0 mm | 0.45 m/s, 91° | 0 W/m² | - |
| 1778030384 | 20° C | 66% | 1011 hPa | 0 mm | 0.89 m/s, 109° | 0 W/m² | - |
| 1778030082 | 20° C | 66% | 1011.1 hPa | 0 mm | 4.47 m/s, 55° | 0 W/m² | - |
| 1778029778 | 20° C | 66% | 1011.1 hPa | 0 mm | 1.79 m/s, 99° | 0 W/m² | - |
| 1778029478 | 20° C | 65% | 1010.8 hPa | 0 mm | 0.45 m/s, 107° | 0 W/m² | - |
| 1778029173 | 20° C | 65% | 1010.9 hPa | 0 mm | 1.79 m/s, 307° | 0 W/m² | - |
| 1778028872 | 20° C | 65% | 1010.8 hPa | 0 mm | 1.34 m/s, 100° | 0 W/m² | - |
| 1778028566 | 20° C | 64% | 1010.9 hPa | 0 mm | 2.24 m/s, 99° | 0 W/m² | - |
| 1778028265 | 20° C | 64% | 1010.7 hPa | 0 mm | 2.24 m/s, 103° | 0 W/m² | - |
| 1778027960 | 20.56° C | 64% | 1010.6 hPa | 0 mm | 0.89 m/s, 103° | 0 W/m² | - |
| 1778027657 | 20.56° C | 64% | 1010.8 hPa | 0 mm | 1.34 m/s, 132° | 0 W/m² | - |
| 1778027353 | 20.56° C | 63% | 1010.8 hPa | 0 mm | 0.89 m/s, 100° | 0 W/m² | - |
| 1778027049 | 20.56° C | 63% | 1010.9 hPa | 0 mm | 0.45 m/s, 98° | 0 W/m² | - |
| 1778026745 | 20.56° C | 63% | 1010.5 hPa | 0 mm | 0.45 m/s, 105° | 0 W/m² | - |
| 1778026442 | 21.11° C | 61% | 1010.8 hPa | 0 mm | 1.79 m/s, 43° | 0 W/m² | - |
| 1778026139 | 21.11° C | 62% | 1010.7 hPa | 0 mm | 0.45 m/s, 106° | 0 W/m² | - |
| 1778025837 | 21.11° C | 61% | 1010.5 hPa | 0 mm | 0.89 m/s, 110° | 0 W/m² | - |
| 1778025533 | 21.11° C | 62% | 1010.6 hPa | 0 mm | 2.24 m/s, 82° | 0 W/m² | - |
| 1778025231 | 21.11° C | 61% | 1010.5 hPa | 0 mm | 1.34 m/s, 112° | 0 W/m² | - |
| 1778024928 | 21.11° C | 61% | 1010.5 hPa | 0 mm | 1.79 m/s, 136° | 2 W/m² | - |
| 1778024626 | 21.11° C | 61% | 1010.1 hPa | 0 mm | 0.89 m/s, 92° | 3 W/m² | - |
| 1778024322 | 21.67° C | 61% | 1010.2 hPa | 0 mm | 1.34 m/s, 106° | 6 W/m² | - |
* Rain latest hour (hover to see other rain measurements)
** Current wind speed in m/s (hover to see current wind gust speed)